TimeCDT,TemperatureF,Dew PointF,Humidity,Sea Level PressureIn,VisibilityMPH,Wind Direction,Wind SpeedMPH,Gust SpeedMPH,PrecipitationIn,Events,Conditions,WindDirDegrees,DateUTC
12:53 AM,75.0,69.1,82,29.96,10.0,SSE,15.0,18.4,N/A,,Overcast,150,2013-04-18 05:53:00
1:53 AM,75.0,69.1,82,29.94,10.0,SE,12.7,21.9,N/A,,Overcast,140,2013-04-18 06:53:00
2:53 AM,73.0,69.1,87,29.91,10.0,SE,10.4,19.6,N/A,,Mostly Cloudy,140,2013-04-18 07:53:00
3:42 AM,73.4,69.8,88,29.86,10.0,SSE,12.7,36.8,N/A,,Mostly Cloudy,150,2013-04-18 08:42:00
3:53 AM,73.0,69.1,87,29.88,10.0,SE,15.0,20.7,N/A,,Mostly Cloudy,140,2013-04-18 08:53:00
4:36 AM,73.4,68.0,83,29.87,10.0,SSE,10.4,-,N/A,,Overcast,150,2013-04-18 09:36:00
4:53 AM,73.0,68.0,84,29.88,10.0,SE,10.4,-,N/A,,Overcast,140,2013-04-18 09:53:00
5:53 AM,73.0,68.0,84,29.87,10.0,SSE,9.2,-,N/A,,Overcast,160,2013-04-18 10:53:00
6:53 AM,73.9,69.1,85,29.88,10.0,SSE,11.5,20.7,N/A,,Mostly Cloudy,150,2013-04-18 11:53:00
7:51 AM,73.4,69.8,88,29.88,10.0,SSE,10.4,-,N/A,,Mostly Cloudy,150,2013-04-18 12:51:00
7:53 AM,73.9,69.1,85,29.89,10.0,SSE,10.4,-,N/A,,Mostly Cloudy,150,2013-04-18 12:53:00
8:03 AM,73.4,69.8,88,29.88,10.0,SE,11.5,-,N/A,,Mostly Cloudy,140,2013-04-18 13:03:00
8:53 AM,75.9,70.0,82,29.89,10.0,SSE,15.0,26.5,N/A,,Mostly Cloudy,150,2013-04-18 13:53:00
9:53 AM,77.0,70.0,79,29.89,10.0,SSE,15.0,21.9,N/A,,Overcast,160,2013-04-18 14:53:00
10:53 AM,77.0,70.0,79,29.91,10.0,SSE,15.0,23.0,N/A,,Overcast,160,2013-04-18 15:53:00
11:20 AM,78.8,71.6,78,29.89,10.0,SSE,19.6,26.5,N/A,,Mostly Cloudy,160,2013-04-18 16:20:00
11:53 AM,78.1,71.1,79,29.90,10.0,SSE,16.1,26.5,N/A,,Mostly Cloudy,160,2013-04-18 16:53:00
12:53 PM,81.0,72.0,74,29.88,10.0,SSE,23.0,26.5,N/A,,Overcast,160,2013-04-18 17:53:00
1:09 PM,80.6,71.6,74,29.86,10.0,SSE,13.8,25.3,N/A,,Overcast,160,2013-04-18 18:09:00
1:53 PM,81.0,72.0,74,29.86,10.0,SSE,21.9,27.6,N/A,,Overcast,150,2013-04-18 18:53:00
2:53 PM,81.0,71.1,72,29.85,10.0,South,18.4,33.4,N/A,,Mostly Cloudy,170,2013-04-18 19:53:00
3:53 PM,81.0,72.0,74,29.83,10.0,South,20.7,26.5,N/A,,Mostly Cloudy,170,2013-04-18 20:53:00
4:53 PM,80.1,72.0,76,29.82,10.0,SSE,12.7,24.2,N/A,,Overcast,160,2013-04-18 21:53:00
5:53 PM,79.0,71.1,77,29.82,9.0,SSE,17.3,26.5,N/A,,Mostly Cloudy,160,2013-04-18 22:53:00
6:53 PM,78.1,72.0,81,29.81,9.0,SSE,17.3,23.0,N/A,,Mostly Cloudy,160,2013-04-18 23:53:00
7:53 PM,77.0,72.0,84,29.81,10.0,SSE,16.1,-,N/A,,Mostly Cloudy,160,2013-04-19 00:53:00
8:53 PM,77.0,72.0,84,29.83,10.0,South,16.1,21.9,N/A,,Overcast,180,2013-04-19 01:53:00
9:35 PM,77.0,73.4,89,29.84,9.0,South,13.8,-,N/A,,Overcast,190,2013-04-19 02:35:00
9:45 PM,77.0,73.4,89,29.84,9.0,South,17.3,23.0,N/A,,Overcast,180,2013-04-19 02:45:00
9:53 PM,77.0,73.0,88,29.85,9.0,South,15.0,-,N/A,,Mostly Cloudy,180,2013-04-19 02:53:00
10:53 PM,75.9,72.0,87,29.85,9.0,South,15.0,-,N/A,,Scattered Clouds,180,2013-04-19 03:53:00
11:46 PM,75.2,71.6,89,29.82,9.0,South,15.0,25.3,N/A,,Mostly Cloudy,180,2013-04-19 04:46:00
11:53 PM,75.9,72.0,87,29.82,9.0,South,17.3,-,N/A,,Mostly Cloudy,170,2013-04-19 04:53:00